Regional Weather Roundup
Issued by NWS Charleston, SC

Current Version | Previous Version | Graphics & Text | Print | Product List | Glossary On
Versions: 1 2 3 4 5 6 7 8 9 10 11 12 13 14 15 16 17 18 19 20 21 22 23 24 25 26 27 28 29 30 31 32 33 34 35 36 37 38 39 40 41 42 43 44 45 46 47 48 49 50
000
ASUS42 KCHS 250627
RWRCHS

REGIONAL WEATHER ROUNDUP
NATIONAL WEATHER SERVICE CHARLESTON SC
200 AM EDT TUE APR 25 2017

NOTE: "FAIR" INDICATES FEW OR NO CLOUDS BELOW 12,000 FEET WITH NO
SIGNIFICANT WEATHER AND/OR OBSTRUCTIONS TO VISIBILITY.

NOT ALL STATIONS ARE QUALITY CONTROLLED. USE DATA WITH CAUTION...
ESPECIALLY DEWPOINT OBSERVATIONS.

SCZ027-030-031-034>040-042>050-250700-
...SOUTHEAST SOUTH CAROLINA...

CITY           SKY/WX    TMP DP  RH WIND       PRES   REMARKS
N CHARLESTON   CLOUDY    60  58  92 W6        29.61F
6HR MIN TEMP:  59; 6HR MAX TEMP:  66;

WATERFRONT PRK   N/A     62  58  87 VRB2      29.63R
JOHNS ISLAND   FAIR      61  59  94 W6        29.62F
PINOPOLIS        N/A     61  61 100 W13       29.54S
MONCKS CORNER  MOCLDY    57  57 100 CALM      29.61F
SUMMERVILLE    MOCLDY    59  59 100 NW5       29.63F
BEAUFORT MCAS  CLOUDY    61  59  93 W9        29.65S
6HR MIN TEMP:  61; 6HR MAX TEMP:  70;

BEAUFORT ARPT  CLOUDY    61  55  82 W9        29.65S
HILTON HEAD IS CLOUDY    61  57  88 W8G15     29.66S
WALTERBORO     CLOUDY    59  59 100 NW8       29.65R
ALLENDALE      CLOUDY    59  57  94 NW5       29.66S

...SOUTHERN MIDLANDS AND PEE DEE...

CITY           SKY/WX    TMP DP  RH WIND       PRES   REMARKS
GEORGETOWN     CLOUDY    59  57  94 W7        29.62R
KINGSTREE      CLOUDY    57  55  94 W6        29.62S
ORANGEBURG     LGT RAIN  58  56  93 N5        29.64F
6HR MIN TEMP:  58; 6HR MAX TEMP:  63;

BARNWELL       CLOUDY    59  57  94 NW8       29.66F
AIKEN          CLOUDY    54  52  94 NW8       29.70F
MANNING        CLOUDY    57  55  94 MISG      29.63S
COLUMBIA       CLOUDY    58  54  86 NW6       29.65F
6HR MIN TEMP:  58; 6HR MAX TEMP:  61;

SUMTER         LGT RAIN  57  55  94 NW9       29.60F
6HR MIN TEMP:  56; 6HR MAX TEMP:  62; 6HR PCP:  0.15;

FLORENCE       CLOUDY    57  57 100 NW8       29.62F
6HR MIN TEMP:  57; 6HR MAX TEMP:  59; 6HR PCP:  0.03;

MYRTLE BEACH   LGT RAIN  62  62 100 NW5       29.59F VSB 1/2
N MYRTLE BEACH FOG       62  62 100 N3        29.58F VSB 1/2
6HR MIN TEMP:  62; 6HR MAX TEMP:  65; 6HR PCP:  0.12;


$$

GAZ063-065-086>088-099>101-113>116-118-119-134>141-150-250700-
...SOUTHEAST GEORGIA...

CITY           SKY/WX    TMP DP  RH WIND       PRES   REMARKS
SAVANNAH ARPT  CLOUDY    61  54  77 NW12      29.68S
6HR MIN TEMP:  61; 6HR MAX TEMP:  68;

HUNTER AAF     CLOUDY    62  59  91 W12       29.65S
6HR MIN TEMP:  60; 6HR MAX TEMP:  67;

FORT STEWART   CLOUDY    61  56  82 W6        29.67F
6HR MIN TEMP:  60; 6HR MAX TEMP:  67;

STATESBORO     CLOUDY    60  60 100 NW6       29.69S
SYLVANIA       CLOUDY   N/A N/A N/A NW8       29.69S
CLAXTON        MOCLDY   N/A N/A N/A SW6       29.69F

...CSRA...CENTRAL AND FAR SOUTHEAST GEORGIA...

CITY           SKY/WX    TMP DP  RH WIND       PRES   REMARKS
THOMSON        CLOUDY    56  54  92 NE6       29.76R
AUGUSTA-BUSH   CLOUDY    59  55  87 N12       29.69R
6HR MIN TEMP:  59; 6HR MAX TEMP:  61; 6HR PCP: TRACE;

AUGUSTA-DANIEL CLOUDY    57  52  83 N14       29.69S
SWAINSBORO     CLOUDY    59  55  88 NW6       29.72R
VIDALIA        MOCLDY    59  57  94 W5        29.71F
EASTMAN        CLOUDY    60  60 100 CALM      29.75F
HAZLEHURST     CLOUDY    60  60 100 W3        29.72F
ALMA           CLOUDY    59  56  89 W5        29.72F
6HR MIN TEMP:  58; 6HR MAX TEMP:  64;

WAYCROSS       CLOUDY    62  60  93 NW6       29.73F
JESUP          CLOUDY    61  54  77 W3        29.72F
BAXLEY         CLOUDY    61  61 100 W3        29.72S
BRUNSWICK      CLOUDY    61  57  88 W8        29.71F
SAINT SIMONS   LGT RAIN  60  54  80 W7        29.71F
6HR MIN TEMP:  60; 6HR MAX TEMP:  69;


$$

SCZ027-028-034-036>038-045-046-048>050-GAZ119-141-250700-
...LAKE AND SUPPLEMENTAL COASTAL OBSERVATIONS...

STATION/POSITION TIME  TEMP    WIND        PRES    WAVE   SWELL
                       AIR SEA DIR/SP/G            HT/PER HT/PER/DIR
                 (UTC) (F)     (DEG/KT/KT) (MB)    (FT/S) (FT/S/D)
WINYAH BAY       0530   63     280/  3     1002.0S
LAKE MURRAY      0620   56     320/  1/  7 1004.1
ACE BASIN NERRS  0530   62     290/  2     1004.0S
FORT PULASKI     0600   62 75  300/ 14/ 15 1004.8
SAPELO ISLAND    0600   62     270/ 10     1006.0

$$

ANZ835-935-AMZ111-154-330-350-352-354-370-450-454-472-250700-
...C-MAN AND BUOY OBSERVATIONS...

STATION/POSITION TIME  TEMP    WIND        PRES    WAVE   SWELL
                       AIR SEA DIR/SP/G            HT/PER HT/PER/DIR
                 (UTC) (F)     (DEG/KT/KT) (MB)    (FT/S) (FT/S/D)
BUOY 41004       0610   67 72  290/ 14/ 19 1002.3
BUOY 41008       0550   64 71  260/ 16/ 19 1005.1F   4/ 8   3/100/ 8
FOLLY BEACH CMAN 0600   61     310/  4/  7 1003.3F
CAPERS NEARSHORE 0608   67 72  280/ 14/ 21 1002.6F
FRIPP NEARSHORE  0608   64 72  290/ 14/ 17 1003.6F


STATION/POSITION TIME  TEMP    WIND        PRES    WAVE   SWELL
                       AIR SEA DIR/SP/G            HT/PER HT/PER/DIR
                 (UTC) (F)     (DEG/KT/KT) (MB)    (FT/S) (FT/S/D)
5E ST. MARYS GA  0600      72                N/A     3/ 8   2/ 90/11
FRYING PAN BUOY  0610   71 74  240/ 10/ 14 1001.5
BUOY 41025       0550   71 78  100/ 35/ 45 1001.5F  16/ 9  11/120/ 9
CAPE LOOKOUT NC  0600   68      90/ 17/ 20 1001.5F
BUOY 41002       0550   73 75  190/ 16/ 19 1004.0F  10/10   8/110/10
BUOY 41010       0610   75 77  270/ 19/ 23 1005.5
ST AUGUSTINE FL  0600   60 73  260/  7/  9 1008.1F


$$



USA.gov is the U.S. government's official web portal to all federal, state and local government web resources and services.